FW2664 Weather Reports


Display with metric or nautical units.
time (UTC)temp
F
wind
direction
speed
MPH
gust
MPH
rain 1hr
in
rain 24hr
in
rain mn
in
humidity
%
barometer
mb
20260503195118 70 281 2.0 3.0 0.00 0.00 0.00 31 1017.8
20260503194616 69 8 3.0 3.0 0.00 0.00 0.00 32 1017.6
20260503194116 69 26 1.0 4.0 0.00 0.00 0.00 35 1018.0
20260503193613 68 142 3.0 4.0 0.00 0.00 0.00 30 1018.1
20260503193108 68 219 4.0 4.0 0.00 0.00 0.00 31 1018.1
20260503192604 69 64 2.0 7.0 0.00 0.00 0.00 30 1018.1
20260503192100 68 307 0.0 6.0 0.00 0.00 0.00 36 1018.2
20260503191557 69 145 0.0 3.0 0.00 0.00 0.00 33 1018.2
20260503191053 68 291 1.0 4.0 0.00 0.00 0.00 36 1018.3
20260503190551 67 104 6.0 6.0 0.00 0.00 0.00 33 1018.6
20260503190048 67 106 3.0 6.0 0.00 0.00 0.00 33 1018.5
20260503185544 67 110 6.0 10.0 0.00 0.00 0.00 33 1018.6
20260503185044 68 114 3.0 4.0 0.00 0.00 0.00 36 1018.6
20260503184540 67 36 0.0 4.0 0.00 0.00 0.00 31 1018.7
20260503184037 67 314 2.0 6.0 0.00 0.00 0.00 36 1018.9
20260503183534 67 122 3.0 9.0 0.00 0.00 0.00 33 1018.8
20260503183031 67 177 3.0 4.0 0.00 0.00 0.00 33 1019.0
20260503182529 66 220 2.0 2.0 0.00 0.00 0.00 34 1018.9
20260503182027 66 305 2.0 4.0 0.00 0.00 0.00 33 1018.9
20260503181523 66 79 2.0 6.0 0.00 0.00 0.00 32 1019.1
20260503181020 66 342 2.0 5.0 0.00 0.00 0.00 35 1019.1
20260503180517 66 129 1.0 4.0 0.00 0.00 0.00 33 1019.1
20260503180014 65 171 2.0 8.0 0.00 0.00 0.00 35 1019.3
20260503175512 64 111 4.0 6.0 0.00 0.00 0.00 33 1019.3
20260503175008 64 109 8.0 9.0 0.00 0.00 0.00 33 1019.3
20260503174506 65 110 4.0 9.0 0.00 0.00 0.00 31 1019.5
20260503174002 64 332 2.0 2.0 0.00 0.00 0.00 37 1019.5
20260503173457 64 68 2.0 5.0 0.00 0.00 0.00 33 1019.6
20260503172954 64 121 4.0 7.0 0.00 0.00 0.00 36 1019.7
20260503172452 64 66 2.0 4.0 0.00 0.00 0.00 33 1019.7
20260503171948 64 128 2.0 5.0 0.00 0.00 0.00 41 1019.8
20260503171445 63 125 2.0 7.0 0.00 0.00 0.00 36 1020.0
20260503170942 63 106 3.0 5.0 0.00 0.00 0.00 35 1020.0
20260503170438 63 75 2.0 5.0 0.00 0.00 0.00 38 1020.2
20260503150831 59 272 2.0 2.0 0.00 0.00 0.00 37 1020.9
20260503150327 60 291 2.0 3.0 0.00 0.00 0.00 42 1021.0
20260503140251 57 129 4.0 6.0 0.00 0.00 0.00 60 1021.1
20260503131221 54 77 2.0 3.0 0.00 0.00 0.00 70 1020.8
20260503130718 55 82 4.0 6.0 0.00 0.00 0.00 71 1021.0
20260503130215 54 89 2.0 4.0 0.00 0.00 0.00 70 1021.0
20260503120141 48 68 2.0 3.0 0.00 0.00 0.00 92 1020.7
20260503110609 39 66 3.0 3.0 0.00 0.00 0.00 97 1019.7
20260503110106 39 66 3.0 3.0 0.00 0.00 0.00 97 1019.8
20260503090455 40 67 2.0 3.0 0.00 0.00 0.00 97 1019.4
20260503081422 41 67 2.0 3.0 0.00 0.00 0.00 97 1019.3
20260503080919 41 89 2.0 2.0 0.00 0.00 0.00 97 1019.2
20260503080415 41 89 2.0 2.0 0.00 0.00 0.00 97 1019.3
20260503072852 42 83 3.0 3.0 0.00 0.00 0.00 97 1019.1
20260503072349 42 80 2.0 2.0 0.00 0.00 0.00 96 1019.0
20260503071845 42 82 2.0 2.0 0.00 0.00 0.00 96 1019.3
20260503071342 42 88 2.0 2.0 0.00 0.00 0.00 96 1019.1
20260503070839 42 85 2.0 2.0 0.00 0.00 0.00 96 1019.2
20260503070337 42 80 3.0 3.0 0.00 0.00 0.00 96 1019.0
20260503060308 44 91 2.0 2.0 0.00 0.00 0.00 96 1019.2
20260503054755 44 68 2.0 2.0 0.00 0.00 0.00 96 1019.0
20260503054252 44 88 2.0 2.0 0.00 0.00 0.00 96 1019.1
20260503053750 44 76 2.0 3.0 0.00 0.00 0.00 96 1018.9
20260503053248 44 77 2.0 2.0 0.00 0.00 0.00 96 1018.9
20260503052744 44 59 1.0 2.0 0.00 0.00 0.00 96 1018.9
20260503052241 44 81 2.0 2.0 0.00 0.00 0.00 95 1018.8
20260503051736 44 70 2.0 3.0 0.00 0.00 0.00 96 1019.0
20260503051234 44 73 2.0 2.0 0.00 0.00 0.00 96 1019.1
20260503050730 44 72 2.0 2.0 0.00 0.00 0.00 96 1018.9
20260503050226 44 66 2.0 2.0 0.00 0.00 0.00 95 1018.9
20260503045724 44 82 2.0 2.0 0.00 0.00 0.00 95 1018.9
20260503045222 44 83 2.0 3.0 0.00 0.00 0.00 95 1018.9
20260503044718 44 75 2.0 2.0 0.00 0.00 0.00 95 1018.6
20260503044216 44 83 2.0 2.0 0.00 0.00 0.00 95 1018.7
20260503043712 44 80 2.0 2.0 0.00 0.00 0.00 94 1018.6
20260503043210 44 83 2.0 2.0 0.00 0.00 0.00 94 1018.5
20260503042705 44 73 2.0 2.0 0.00 0.00 0.00 94 1018.5
20260503042202 44 84 2.0 3.0 0.00 0.00 0.00 94 1018.7
20260503041658 44 83 2.0 2.0 0.00 0.00 0.00 94 1018.8
20260503041156 44 87 2.0 2.0 0.00 0.00 0.00 93 1018.6
20260503040653 44 85 2.0 2.0 0.00 0.00 0.00 93 1018.6
20260503040151 44 74 2.0 3.0 0.00 0.00 0.00 93 1018.5
20260503035647 44 82 2.0 2.0 0.00 0.00 0.00 93 1018.6
20260503035145 44 82 2.0 3.0 0.00 0.00 0.00 93 1018.5
20260503034642 44 72 3.0 3.0 0.00 0.00 0.00 92 1018.5
20260503034139 45 66 2.0 2.0 0.00 0.00 0.00 93 1018.4
20260503033636 45 66 3.0 3.0 0.00 0.00 0.00 92 1018.5
20260503033134 45 72 3.0 3.0 0.00 0.00 0.00 92 1018.4
20260503032632 45 69 2.0 3.0 0.00 0.00 0.00 92 1018.5
20260503032130 45 80 2.0 3.0 0.00 0.00 0.00 92 1018.3
20260503031627 45 81 2.0 3.0 0.00 0.00 0.00 91 1018.4
20260503031125 45 61 3.0 3.0 0.00 0.00 0.00 91 1018.3
20260503030621 46 61 3.0 3.0 0.00 0.00 0.00 91 1018.3
20260503030118 46 77 2.0 3.0 0.00 0.00 0.00 91 1018.5
20260503025614 46 65 3.0 4.0 0.00 0.00 0.00 91 1018.4
20260503025113 46 73 3.0 4.0 0.00 0.00 0.00 91 1018.3
20260503024608 46 74 3.0 3.0 0.00 0.00 0.00 91 1018.4
20260503024106 46 79 2.0 3.0 0.00 0.00 0.00 91 1018.5
20260503023602 46 80 3.0 3.0 0.00 0.00 0.00 91 1018.3
20260503023059 46 79 2.0 2.0 0.00 0.00 0.00 90 1018.5
20260503022555 46 84 2.0 2.0 0.00 0.00 0.00 90 1018.2
20260503022050 46 81 2.0 3.0 0.00 0.00 0.00 89 1018.2
20260503021547 46 75 2.0 2.0 0.00 0.00 0.00 89 1018.2
20260503021044 47 88 2.0 2.0 0.00 0.00 0.00 89 1018.1
20260503020541 47 72 2.0 2.0 0.00 0.00 0.00 88 1018.0
20260503020038 47 95 2.0 3.0 0.00 0.00 0.00 88 1018.0
20260503015535 47 88 2.0 3.0 0.00 0.00 0.00 87 1018.1
20260503015032 48 77 2.0 3.0 0.00 0.00 0.00 87 1017.9
20260503014528 48 86 3.0 3.0 0.00 0.00 0.00 87 1017.9
20260503014026 48 87 3.0 3.0 0.00 0.00 0.00 87 1017.9
20260503013523 48 79 3.0 3.0 0.00 0.00 0.00 86 1017.8
20260503013021 48 86 1.0 2.0 0.00 0.00 0.00 85 1017.5
20260503012518 48 86 2.0 2.0 0.00 0.00 0.00 85 1017.8
20260503012014 48 87 2.0 2.0 0.00 0.00 0.00 84 1017.6
20260503011511 49 86 2.0 2.0 0.00 0.00 0.00 83 1017.5
20260503011008 49 78 2.0 2.0 0.00 0.00 0.00 82 1017.5
20260503010504 50 74 2.0 2.0 0.00 0.00 0.00 81 1017.5
20260503010002 50 75 2.0 2.0 0.00 0.00 0.00 81 1017.5
20260503005459 50 86 1.0 2.0 0.00 0.00 0.00 80 1017.4
20260503004956 51 63 1.0 2.0 0.00 0.00 0.00 79 1017.3
20260503004452 51 69 2.0 3.0 0.00 0.00 0.00 78 1017.2
20260503003950 51 73 1.0 2.0 0.00 0.00 0.00 78 1017.2
20260503003447 52 70 2.0 3.0 0.00 0.00 0.00 76 1017.1
20260503002944 52 71 2.0 3.0 0.00 0.00 0.00 75 1017.0
20260503002441 52 28 3.0 5.0 0.00 0.00 0.00 74 1017.1
20260503001937 52 16 2.0 4.0 0.00 0.00 0.00 74 1016.8
20260503001434 53 359 4.0 6.0 0.00 0.00 0.00 73 1016.9
20260503000932 53 351 3.0 6.0 0.00 0.00 0.00 72 1016.8
20260503000430 53 352 2.0 5.0 0.00 0.00 0.00 72 1016.7
20260502235926 53 42 3.0 7.0 0.00 0.00 0.00 71 1016.5
20260502235422 53 37 4.0 5.0 0.00 0.00 0.00 71 1016.5
20260502234920 54 58 4.0 6.0 0.00 0.00 0.00 70 1016.4
20260502234417 54 49 4.0 7.0 0.00 0.00 0.00 69 1016.3
20260502233914 54 96 3.0 6.0 0.00 0.00 0.00 69 1016.2
20260502233409 55 12 3.0 8.0 0.00 0.00 0.00 68 1016.2
20260502232906 56 50 3.0 6.0 0.00 0.00 0.00 66 1016.2
20260502232402 55 30 5.0 7.0 0.00 0.00 0.00 66 1016.3
20260502231859 55 39 3.0 6.0 0.00 0.00 0.00 68 1016.4
20260502231357 55 120 1.0 8.0 0.00 0.00 0.00 69 1016.2
20260502230855 55 2 5.0 9.0 0.00 0.00 0.00 70 1016.4
20260502230353 55 347 5.0 6.0 0.00 0.00 0.00 71 1016.3
20260502225850 55 356 4.0 6.0 0.00 0.00 0.00 69 1016.3
20260502225346 56 17 2.0 5.0 0.00 0.00 0.00 66 1016.1
20260502224843 57 31 3.0 7.0 0.00 0.00 0.00 62 1016.0
20260502224339 57 27 4.0 5.0 0.00 0.00 0.00 61 1016.0
20260502223837 57 59 2.0 3.0 0.00 0.00 0.00 61 1015.9
20260502223335 58 17 4.0 5.0 0.00 0.00 0.00 57 1015.8
20260502222832 59 357 4.0 5.0 0.00 0.00 0.00 53 1015.8
20260502222330 59 13 3.0 5.0 0.00 0.00 0.00 50 1015.5
20260502221825 59 44 0.0 4.0 0.00 0.00 0.00 51 1015.4
20260502221321 60 287 3.0 5.0 0.00 0.00 0.00 50 1015.2
20260502220819 60 49 0.0 3.0 0.00 0.00 0.00 51 1015.0
20260502220314 60 252 2.0 5.0 0.00 0.00 0.00 49 1014.9
20260502215811 61 275 4.0 9.0 0.00 0.00 0.00 45 1014.9
20260502215308 62 288 1.0 9.0 0.00 0.00 0.00 44 1014.7
20260502214806 63 309 3.0 6.0 0.00 0.00 0.00 42 1014.5
20260502214302 64 330 2.0 6.0 0.00 0.00 0.00 40 1014.2
20260502213759 65 219 2.0 4.0 0.00 0.00 0.00 39 1014.2
20260502213257 66 263 2.0 3.0 0.00 0.00 0.00 38 1014.1
20260502212755 66 299 1.0 6.0 0.00 0.00 0.00 36 1013.9
20260502212253 66 259 3.0 7.0 0.00 0.00 0.00 37 1013.9
20260502211749 66 283 3.0 3.0 0.00 0.00 0.00 35 1014.0
20260502211246 64 280 2.0 3.0 0.00 0.00 0.00 43 1014.0
20260502210743 63 206 0.0 5.0 0.00 0.00 0.00 39 1014.2
20260502210241 64 274 4.0 10.0 0.00 0.00 0.00 39 1014.3
20260502205738 64 314 2.0 3.0 0.00 0.00 0.00 40 1014.2
20260502205233 64 356 0.0 2.0 0.00 0.00 0.00 40 1014.3
20260502204731 64 282 2.0 5.0 0.00 0.00 0.00 39 1014.3
20260502204228 65 339 4.0 8.0 0.00 0.00 0.00 37 1014.2
20260502203726 65 342 2.0 5.0 0.00 0.00 0.00 37 1014.1
20260502203224 66 296 2.0 4.0 0.00 0.00 0.00 35 1014.3
20260502202717 65 296 2.0 5.0 0.00 0.00 0.00 40 1014.3
20260502202216 64 359 3.0 3.0 0.00 0.00 0.00 39 1014.4
20260502201713 63 10 3.0 5.0 0.00 0.00 0.00 40 1014.4
20260502201210 64 356 5.0 6.0 0.00 0.00 0.00 37 1014.5
20260502200705 64 280 3.0 6.0 0.00 0.00 0.00 38 1014.5
20260502200202 65 34 1.0 3.0 0.00 0.00 0.00 36 1014.5
20260502195700 65 324 4.0 5.0 0.00 0.00 0.00 39 1014.6